METEOR 2-5 DEB, 28974

Orbit data source: Space-Track

METEOR 2-5 DEB, 28974 is space debris in LEO originally from a launch on Wed, 31 Oct 1979 UTC launched from the Plesetsk Missile And Space Complex (PKMTR). Debris objects in space refer to the collection of defunct objects orbiting the Earth. Examples of debris include non-operational satellites, rocket bodies, and fragments generated from explosions, collisions, or faulty payload assembly.

Loading next visibility...
Identifier
28974, 1979-095K
Orbit
LEO
Country
Flag of CISCIS
Related business
Manufacturer
Unknown
Mission
Spacecraft
Bus & Motor
Unknown
Mass
Unknown
Launch date (UTC)
1979-10-31 (47 years ago)
Launch vehicle
Unknown
Launch site
Plesetsk Missile And Space Complex (PKMTR)
Object type
Payload
Rocket body
Debris
Shape & HBR
Unknown shape, 0.1 m
Radar Cross Section
Small (<0.1 m²)

Expand to show TLE details & history
Last TLE update: 1 day ago

TLE from 1 day ago
0 METEOR 2-5 DEB
1 28974U 79095K   26122.78661220  .00006377  00000-0  16980-2 0  9994
2 28974  81.1951 138.0941 0020211  66.5207 293.8106 14.48316991 43692
Epoch: 2026-05-02T18:52Z
TLE epoch observation values (Epoch: 2026-05-02T18:52:43.294Z)
Latitude
-0.00002°
Longitude
-5.78581°
Altitude
728.323 km
Speed
7.494 km/s
True Right ascension
09h 12m 22s
True Declination
0° 00' 00"
Sunlit
Object was in daylight at epoch
Visualization orbit readout
Latitude
Unknown
Longitude
Unknown
Altitude
Unknown
Speed
Unknown
Apparent Right ascension
Unknown
Apparent Declination
Unknown
Sunlit
N/A
Visualization observer readout
Local Sidereal Time
09:35:04
Azimuth
Unknown
Elevation
Unknown
Doppler factor
Unknown
Orbital elements
Apogee altitude
742.639 km
Perigee altitude
713.913 km
Semi-major axis
7,106.413 km
Eccentricity
0.00202
Inclination
81.1951°
RAAN
138.0941°
Arg. of periapsis
66.5207°
True anomaly
293.5985°
Mean anomaly
293.8106°
Eccentric anomaly
293.70457°
Mean motion
3.62299 °/min
Orbital period
99.37 mins
BSTAR
0.001698
Loading maneuver chart data...
Computing Atmospheric mass density...
Loading historical data...
Loading historical data...
Loading historical data...
Loading historical data...
Loading historical data...
Loading historical data...
Loading historical data...

Documentation

Showing up to 5 results
|